Regional Weather Roundup
Issued by NWS New Orleans/Baton Rouge, LA

Home | Current Version | Previous Version | Text Only | Print | Product List | Glossary On
Versions: 1 2 3 4 5 6 7 8 9 10 11 12 13 14 15 16 17 18 19 20 21 22 23 24 25 26 27 28 29 30 31 32 33 34 35 36 37 38 39 40 41 42 43 44 45 46 47 48 49 50
279
ASUS44 KLIX 311110
RWRLIX
NEW ORLEANS REGIONAL WEATHER ROUNDUP
NATIONAL WEATHER SERVICE NEW ORLEANS LA
600 AM CDT FRI OCT 31 2014

NOTE: "FAIR" INDICATES FEW OR NO CLOUDS BELOW 12,000 FEET WITH NO
      SIGNIFICANT WEATHER AND/OR OBSTRUCTIONS TO VISIBILITY.
      SKY/WX - SKY CONDITION AND SIGNIFICANT WEATHER.
      TMP - AIR TEMPERATURE.     DP    - DEWPOINT TEMPERATURE.
      RH  - RELATIVE HUMIDITY.   PRES  - PRESSURE.
      HI  - HEAT INDEX.          WCI   - WIND CHILL INDEX.

*  THESE STATIONS ARE NOT NWS OR FAA STATIONS AND ARE NOT UNDER
   NWS QUALITY CONTROL.

LAZ038-040-048-061>063-065>067-069-311200-
SOUTHEAST LOUISIANA

CITY           SKY/WX    TMP DP  RH WIND       PRES   REMARKS
N.O. AUDUBON     N/A     56  54  95 MISG        N/A
N.O. INTL ARPT CLEAR     56  49  77 W5        30.03S
N.O. LAKEFRONT CLEAR     65  48  54 N8        30.03S
N.O. DOWNTOWN*   N/A     61  46  59 CALM      30.03S
SLIDELL        CLEAR     44  40  85 CALM      30.02S
BATON ROUGE    CLEAR     48  45  89 CALM      30.04S
BOOTHVILLE     CLEAR     65  51  60 N7        30.02S
BELLE CHASSE   CLEAR     49  45  86 CALM      30.03S
BOGALUSA*        N/A     42  39  89 CALM      30.04S
NEW ROADS*       N/A     47  45  94 CALM      30.05S
GONZALES*        N/A     48  48 100 CALM      30.04S
HAMMOND*       CLEAR     45  43  93 CALM      30.05R
HOUMA*         CLEAR     52  47  83 CALM      30.04S
PORT FOURCHON* SUNNY     64  55  72 VRB5      30.06S

$$

MSZ070-080>082-311200-
SOUTHERN MISSISSIPPI

CITY           SKY/WX    TMP DP  RH WIND       PRES   REMARKS
MCCOMB         CLEAR     45  42  89 CALM      30.03S
GULFPORT       CLEAR     46  43  89 CALM      30.01S
BILOXI         CLEAR     53  44  69 N3        30.01S
PASCAGOULA     CLEAR     40  39  97 CALM      30.02R

$$

COASTAL OBSERVATIONS
LAKE AND NEARSHORE STATIONS

STATION/POSITION TIME  TEMP    WIND        PRES    WAVE
                       AIR SEA DIR/SP/G            HT/PER
                 (UTC) (F)     (DEG/KT/KT) (MB)    (FT/S)
PASCAGOULA       1100   50     350/  7/  7 1015.8
WAVELAND YACHT   1100   54     290/  3/  4 1015.7
GRAND ISLE       1100   67 73   10/ 10/ 13 1017.1
SOUTHWEST PASS   1100   69 77              1016.6
NEW CANAL        1100   67 69  350/  8/ 10 1017.1
SHELL BEACH      1100   65 67  350/  8/  9 1016.4

OFFSHORE STATIONS

STATION/POSITION TIME  TEMP    WIND        PRES    WAVE
                       AIR SEA DIR/SP/G            HT/PER
                 (UTC) (F)     (DEG/KT/KT) (MB)    (FT/S)
64 S DAUPHIN ISL 1042   69 77  360/ 16/ 21 1016.0    3/ 4

$$




USA.gov is the U.S. government's official web portal to all federal, state and local government web resources and services.